Probability
0 0 0 0 0 0 0 1 3 5 8 13 17 21 25 30 35 38 41 44 47 50 53 56 58 61 60 55 53 55 57 58 60 60 56 52 50 50 50 51 50 50 50 51
0 0 0 0 0 0 0 1 3 5 7 12 16 21 26 32 36 39 40 41 43 46 50 54 57 58 57 55 54 57 59 60 60 60 56 52 50 50 51 50 49 48 48 48
0 0 0 0 0 1 1 2 4 7 9 12 16 20 27 34 37 38 37 37 39 43 46 50 53 52 50 50 51 54 57 60 60 58 55 52 52 52 52 50 47 44 42 41
0 0 0 0 0 1 2 2 5 9 11 13 15 18 25 32 36 35 33 34 39 42 43 44 46 46 44 42 43 47 52 55 57 55 53 54 54 53 52 49 46 41 37 36
0 0 0 0 0 1 2 3 6 9 13 14 14 16 22 29 34 33 32 34 38 39 38 39 42 44 41 38 37 42 47 50 51 50 49 52 52 50 49 48 45 39 36 35
0 0 0 1 1 1 2 4 7 11 16 18 17 17 22 29 34 34 34 34 34 33 34 38 43 46 44 40 38 40 44 47 47 46 45 46 46 44 43 44 43 39 36 36
1 1 1 2 2 3 6 8 11 16 21 24 25 25 28 32 34 34 33 31 29 29 32 38 43 47 47 44 41 41 44 46 47 46 43 40 40 40 39 39 40 39 37 34
2 3 4 6 7 9 13 15 16 17 21 26 29 30 31 31 31 31 31 29 28 29 33 39 44 47 48 46 43 43 44 44 44 45 43 40 39 38 38 38 38 37 34 30
3 5 7 9 10 12 15 17 16 16 18 23 26 27 28 29 28 29 29 28 28 30 34 39 44 47 48 47 46 44 43 42 42 43 43 42 40 37 37 38 37 35 31 27
4 5 5 6 8 10 12 13 13 14 16 19 22 24 26 28 28 29 29 28 29 32 34 38 41 44 46 47 46 45 43 42 42 42 41 42 41 36 33 34 34 33 31 28
4 4 4 4 6 8 10 10 10 12 15 18 20 23 25 26 27 29 30 29 31 33 35 36 38 40 40 43 44 44 45 43 41 39 38 39 37 31 25 24 25 25 25 24
5 5 6 5 5 7 8 7 7 9 13 16 18 20 22 23 24 25 26 27 29 31 33 35 37 37 38 40 42 43 44 42 36 33 35 37 34 27 18 13 11 11 12 13
7 7 6 4 4 5 6 5 5 7 11 14 15 16 17 18 20 21 23 24 26 27 29 32 35 36 38 41 42 42 41 36 31 30 31 31 30 27 18 10 5 3 3 4
7 6 3 3 4 5 4 4 5 7 9 12 13 14 14 15 17 20 23 24 24 25 27 30 32 34 36 39 40 39 36 31 26 26 27 25 23 21 17 11 7 5 2 1
5 4 2 3 5 5 4 5 7 8 8 9 11 12 12 13 15 19 22 23 24 23 24 27 29 30 31 32 33 33 30 25 22 22 22 21 18 13 10 8 7 7 3 1
4 3 2 3 5 5 5 6 6 7 7 7 8 10 11 13 17 20 21 22 22 21 20 23 25 26 26 28 28 27 23 19 17 17 17 16 13 9 6 6 6 5 3 1
3 3 3 4 5 4 5 5 5 6 5 5 7 9 12 15 18 20 21 20 20 19 18 19 20 20 22 24 24 21 17 12 10 10 9 8 6 5 4 5 5 3 2 2
3 3 4 5 6 5 4 4 5 6 6 7 10 13 14 16 18 19 19 19 18 17 16 16 15 15 16 17 16 14 10 6 4 3 2 2 1 1 3 4 4 3 2 2
4 4 5 6 6 5 5 5 5 6 7 11 14 16 16 17 17 17 17 16 15 14 14 12 10 10 10 9 8 6 4 2 1 0 0 0 0 1 2 3 3 3 2 2
5 6 6 7 6 5 6 5 5 5 8 11 12 14 15 16 16 15 14 13 11 10 10 8 6 6 6 5 3 1 0 0 0 0 0 0 0 1 2 3 3 3 3 2
5 5 6 7 6 4 4 4 4 5 6 7 8 10 12 14 14 12 10 9 8 6 5 4 4 4 4 3 1 0 0 0 0 0 0 0 0 0 1 1 2 3 3 3
4 4 4 5 5 3 2 2 3 4 4 3 3 5 9 11 9 7 7 6 5 3 1 2 2 2 2 1 0 0 0 0 0 0 0 0 0 0 0 0 1 2 3 3
3 3 3 4 4 4 2 1 1 2 2 1 0 2 6 7 4 2 3 3 2 1 0 1 1 1 1 0 0 0 0 0 0 0 0 0 1 1 0 0 0 1 1 2
3 3 3 3 4 5 3 1 1 1 1 0 0 2 3 2 1 0 1 1 1 0 0 0 0 0 0 0 1 0 0 0 0 0 0 0 1 2 1 0 0 0 0 1
3 3 3 3 3 3 2 1 1 1 1 0 0 1 1 0 0 2 3 3 1 0 1 1 1 0 0 0 0 0 0 0 0 0 0 1 2 3 2 1 0 0 0 0
3 3 2 1 1 1 0 0 0 1 0 0 0 0 0 0 0 2 3 2 1 1 1 2 2 1 0 0 0 0 0 0 0 0 0 1 2 3 2 1 0 0 0 0
3 3 1 0 0 0 0 0 0 1 0 0 0 0 0 0 0 1 1 1 1 1 1 3 2 1 0 0 0 0 0 0 0 0 0 1 3 3 1 0 0 0 0 0
Wind_Speed
15 14 14 13 13 13 13 13 13 10 7 2 1 2 4 5 6 5 5 5 5 5 4 3 3 3 2 2 2 2 3 4 5 5 5 4 4 4 4 4 5 4 4 4
16 17 16 16 15 14 14 13 12 12 8 2 2 2 3 4 4 4 4 3 4 5 4 4 3 2 2 1 1 2 2 3 3 4 4 4 4 4 4 4 4 4 3 3
13 15 15 15 13 12 11 10 9 8 3 1 2 3 3 3 3 4 3 3 4 4 3 2 2 2 2 1 1 1 1 2 2 3 3 3 4 3 3 3 2 2 2 2
12 14 16 9 7 7 7 8 6 4 3 3 3 3 3 3 3 3 3 3 3 2 2 1 1 1 2 1 1 2 2 2 2 2 2 2 3 3 2 2 2 2 2 2
10 13 14 9 5 5 6 5 5 4 4 4 4 3 3 4 3 2 3 3 2 1 2 1 1 1 1 1 0 0 1 1 2 2 2 2 2 3 3 3 3 3 3 2
11 12 11 5 4 5 5 4 4 5 6 5 4 3 2 5 5 3 3 3 2 1 2 1 1 1 1 1 1 1 1 1 1 2 2 2 2 2 2 2 3 3 2 3
13 13 9 3 5 5 6 1 6 5 5 6 6 4 3 3 3 3 2 2 1 1 2 1 1 1 1 0 1 1 0 0 1 1 2 2 2 2 2 2 2 2 2 2
10 12 6 7 5 4 4 4 5 5 5 5 5 5 4 2 2 2 1 1 1 1 1 1 1 1 0 1 1 1 0 1 1 1 1 2 2 2 2 2 2 3 3 3
3 1 3 6 6 6 5 5 5 4 5 4 5 4 3 1 1 1 2 1 1 1 1 1 0 0 1 0 1 1 1 0 1 1 1 1 1 2 2 1 2 2 2 2
4 1 3 4 5 6 6 6 6 6 6 5 6 6 4 1 1 1 2 2 2 1 0 1 0 0 1 1 0 0 0 0 1 1 1 1 1 1 1 1 1 1 1 1
6 5 5 3 4 6 7 7 6 6 6 6 6 6 3 1 1 1 2 2 2 2 1 1 0 0 1 0 1 0 0 1 1 1 2 1 1 1 0 1 0 1 1 0
6 4 4 3 4 5 6 6 6 6 6 5 4 3 3 2 2 2 2 2 2 2 2 1 1 1 1 1 0 1 1 1 1 1 1 2 2 2 5 3 3 3 2 1
5 5 6 6 6 6 5 6 6 6 5 4 3 3 3 2 2 2 2 2 2 3 2 1 1 1 1 1 1 1 1 1 1 1 1 1 1 2 2 2 3 2 1 1
4 5 6 6 6 6 6 6 6 5 4 4 3 2 2 2 2 2 2 3 3 2 2 2 2 2 2 1 1 2 2 2 2 2 1 1 1 1 1 2 2 1 1 1
4 5 6 6 5 5 6 5 5 4 3 3 2 1 1 1 2 2 3 3 2 2 2 2 2 2 2 1 2 2 2 2 1 1 1 1 1 0 0 1 1 1 1 1
6 5 5 5 5 5 5 5 4 4 3 3 2 2 2 1 1 1 2 2 2 2 2 2 2 2 2 1 1 1 1 2 2 1 0 0 0 0 1 1 0 0 1 1
6 5 5 5 4 4 4 4 4 3 3 2 2 2 1 1 1 2 2 2 2 2 1 1 2 2 1 1 1 1 1 1 2 1 1 1 1 1 1 1 0 0 1 1
3 3 3 3 3 4 4 4 3 3 2 2 1 1 2 2 2 2 2 2 2 2 2 2 1 1 1 2 1 1 1 1 1 1 1 0 0 1 1 1 1 1 2 2
0 1 1 2 2 2 3 3 3 2 2 2 2 2 2 1 1 1 2 2 3 2 3 3 3 1 0 1 1 2 1 1 2 1 1 1 1 1 1 0 1 1 0 0
1 1 1 1 2 2 2 2 1 0 1 1 1 2 1 1 1 1 2 2 2 2 2 2 2 2 1 1 1 1 1 1 1 1 1 0 0 0 1 1 1 1 1 1
2 2 2 2 2 2 2 2 1 1 1 1 1 1 1 1 1 1 1 1 2 3 2 2 1 2 2 2 1 0 1 1 1 1 1 1 1 2 2 1 2 1 1 1
3 2 2 3 3 3 3 2 2 1 1 1 1 1 1 1 1 2 2 1 2 3 2 2 3 5 5 3 1 1 1 2 2 1 1 1 1 1 1 1 1 1 1 1
2 2 2 2 2 3 3 3 2 1 1 1 0 1 1 1 1 1 1 1 2 3 3 4 5 5 4 2 2 2 3 3 2 2 1 1 2 2 1 2 2 1 1 1
1 1 2 1 1 2 2 2 2 1 1 0 1 1 1 0 1 1 2 3 4 3 3 4 3 3 3 2 2 2 2 2 2 2 2 2 2 2 2 2 2 2 2 3
1 1 1 1 1 0 0 0 1 1 1 1 1 1 1 1 1 2 2 4 4 2 2 3 2 0 1 2 2 2 2 3 3 3 3 2 2 2 2 2 2 2 2 1
1 0 0 0 1 0 0 1 1 0 1 1 1 1 1 2 2 2 2 2 3 2 1 1 1 1 0 1 1 2 2 2 2 1 2 2 2 2 1 2 2 1 2 2
2 1 1 1 1 1 0 0 0 0 0 0 0 1 2 2 1 2 2 2 1 1 1 0 0 1 0 1 1 2 2 2 2 2 2 2 2 2 1 1 1 1 2 2
Wind_Direction
280 277 277 278 272 265 264 267 270 268 259 259 349 53 89 98 100 98 99 97 87 84 71 71 78 89 104 129 155 161 164 180 183 183 187 193 196 196 194 197 207 207 213 211
280 276 272 274 275 271 267 266 267 271 276 334 66 47 85 103 114 108 87 87 90 88 79 64 64 70 77 111 128 146 163 164 161 179 186 190 194 197 202 201 205 205 206 205
277 280 278 269 272 268 269 280 281 279 298 3 44 40 44 83 106 107 112 88 89 93 89 74 57 80 85 74 117 127 143 149 157 178 188 193 202 196 204 203 193 199 197 200
273 275 266 270 290 288 279 284 305 320 6 25 7 26 62 79 78 98 111 101 88 87 92 91 64 57 98 97 131 147 153 154 161 181 185 190 195 194 187 179 179 195 207 190
268 265 262 257 273 284 285 291 342 358 359 10 9 8 60 68 57 81 106 107 112 125 122 102 88 70 103 111 129 183 172 157 175 187 195 191 187 183 181 186 187 198 193 198
258 266 267 275 340 335 290 259 17 16 7 355 334 297 20 32 35 45 77 92 97 134 127 111 98 110 140 163 179 229 234 210 220 207 194 191 191 190 196 199 204 207 190 197
251 260 264 321 348 319 272 2 11 11 13 6 357 347 355 30 40 40 58 71 74 145 142 117 104 104 157 233 255 277 289 248 225 222 198 186 180 181 181 200 196 203 200 212
246 253 262 10 359 7 28 17 7 6 15 10 4 356 347 19 32 24 17 18 355 48 89 97 126 139 203 301 336 348 312 193 187 207 242 189 160 177 186 199 208 209 213 223
295 293 38 19 21 13 3 357 351 348 355 351 335 332 328 347 332 335 342 327 322 353 15 53 78 163 208 277 344 333 340 330 217 220 183 132 168 181 185 193 229 224 217 219
295 280 344 2 0 347 356 352 342 344 342 336 327 314 308 325 313 321 326 331 318 299 280 306 321 296 249 233 320 120 228 270 206 181 182 154 193 205 204 190 221 234 222 218
261 277 298 315 340 336 336 335 331 336 341 341 335 329 335 359 360 352 7 354 349 344 312 278 286 344 283 316 51 75 253 258 244 212 201 171 141 81 81 58 198 213 247 186
273 290 291 297 312 316 317 325 331 334 337 337 341 336 333 343 358 16 12 3 352 332 312 304 313 297 298 329 336 232 248 258 256 247 216 177 154 116 64 71 89 103 97 84
318 324 310 305 306 312 312 314 318 316 322 327 336 341 334 334 354 6 6 345 331 321 318 317 315 304 270 215 224 241 245 262 273 278 257 208 169 159 147 96 83 69 77 125
330 324 299 296 304 314 313 311 302 308 330 334 331 335 345 355 360 351 339 334 329 325 317 313 300 291 286 233 212 230 238 238 229 224 237 220 200 195 178 172 151 132 135 173
302 293 286 298 304 305 301 300 308 323 338 337 333 338 9 18 12 358 353 345 333 326 321 311 306 304 298 265 229 236 241 248 238 238 237 210 198 181 151 131 137 142 146 142
288 283 285 290 297 300 299 304 314 321 327 331 330 354 9 19 25 8 4 357 337 325 330 329 321 310 292 278 255 231 211 192 218 242 287 45 113 170 139 102 45 50 90 97
280 277 279 285 291 299 312 320 318 318 323 325 333 336 345 8 26 20 21 14 14 359 338 307 285 281 265 258 252 229 199 164 165 174 209 211 219 212 162 138 181 163 113 121
268 274 279 290 301 314 321 326 332 336 332 334 8 17 24 35 30 29 13 21 28 17 353 337 342 315 207 184 207 214 185 176 184 202 186 147 223 231 205 168 204 166 136 151
230 350 357 336 315 300 300 319 336 352 354 10 40 46 42 29 16 18 3 6 3 352 351 11 18 353 266 176 215 214 223 191 167 162 169 181 227 254 263 140 109 104 88 108
89 78 44 341 319 316 324 330 331 335 45 47 49 41 25 6 17 19 9 17 360 3 14 17 7 4 13 38 325 234 174 151 138 134 154 197 132 77 53 73 104 100 96 85
79 63 40 7 354 347 338 338 3 69 84 72 60 37 21 4 13 23 28 39 34 24 13 7 5 19 37 30 319 270 113 97 89 93 84 81 78 74 70 58 58 61 61 48
73 51 34 23 10 1 5 19 54 87 105 104 70 56 65 44 36 46 53 55 55 31 359 19 44 44 34 12 353 23 68 78 87 98 106 105 96 80 67 57 57 71 78 60
67 49 34 24 13 16 7 9 35 77 103 125 135 81 59 34 14 40 79 69 73 50 20 38 45 41 23 351 1 32 51 58 58 59 63 73 76 72 54 47 37 26 45 52
60 43 31 12 6 26 23 6 15 60 102 116 99 84 56 26 76 78 85 92 71 68 55 64 59 29 356 337 12 41 57 57 49 45 45 55 62 61 52 43 33 23 27 32
47 16 3 350 15 38 87 249 243 215 164 97 103 117 123 113 114 87 82 92 97 98 94 113 133 6 335 351 18 35 48 51 45 37 32 31 46 56 58 50 41 38 35 29
272 249 55 341 353 325 269 252 265 180 112 96 54 62 104 109 101 93 94 105 101 108 98 123 159 174 217 318 356 41 59 69 55 41 39 32 34 35 38 45 41 40 39 34
247 196 183 207 231 260 253 238 267 325 3 76 61 60 65 75 91 95 90 90 107 129 119 103 93 88 23 349 44 62 61 62 51 28 25 33 31 24 32 40 30 34 40 37